Retour au catalogue

COSMOS 886 DEB

ActifLEO
NORAD 19475·DEBRIS·🇷🇺 Russia

Lancé Dec 27, 1976 depuis Baikonur Cosmodrome

Loading…

Prochains Passages (prochaines 24 heures)

TLE

VieillissantSource: Space-Track

Époque: Sep 12, 2026, 01:53 UTC

1 19475U 76126CD  26255.07883088  .00001238  00000-0  61512-3 0  9992
2 19475  65.8517 147.6518 0795346 182.3766 177.3396 13.18544218721079

Suivez COSMOS 886 DEB en temps réel avec AllMySat

Download on the App Store